Flag for Canada Weather past 2 weeks in Saint-Jérôme, Quebec, Canada

Now
75 °F

Thunderstorms. Broken clouds.


Feels Like: 75 °F
Forecast: 61 / 84 °F
Wind: 7 mph from Northwest

Location: Montreal / Mirabel

Current Time: May 30, 2015 at 3:49:43 PM

Latest Report: May 30, 2015 at 3:00 PM


Visibility: 20 mi

Pressure: 29.84 "Hg

Humidity: 89%

Dew point: 72 °F

Location of Saint-JérômeLocation

Historic Weather in Saint-Jérôme — Graph

°F

Saint-Jérôme temperature yesterday

Maximum temperature yesterday: 75 °F (at 3:00 PM)
Minimum temperature yesterday: 46 °F (at 6:00 AM)
Average temperature yesterday: 63 °F

Past Weeks' High & Low Weather Summary

 TemperatureHumidityPressure
High84 °F (May 30, 1:00 PM)100% (May 18, 11:00 PM)30.34 "Hg (May 18, 11:00 PM)
Low32 °F (May 23, 1:00 AM)21% (May 20, 6:00 PM)29.61 "Hg (May 19, 5:00 PM)
Average62 °F66%30.02 "Hg
* Reported May 15 2:00 PM — May 30 2:00 PM, Saint-Jérôme, Weather by CustomWeather, © 2015

Note: Actual official high and low records may vary slightly from our data, if they occured in-between our weather recording intervals... More about our weather records

Advertising

Saint-Jérôme weather history for previous 24 hours

 ConditionsComfort  
Time TempWeatherWind HumidityBarometerVisibility
2:00 PM
Sat, May 30
84 °FBroken clouds.15 mph58%29.84 "Hg20 mi
1:00 PM84 °FThunderstorms. Partly sunny.15 mph58%29.86 "Hg10 mi
12:50 PM82 °FThunderstorms. Partly sunny.20 mph62%29.86 "Hg12 mi
12:00 PM82 °FPartly sunny.16 mph58%29.88 "Hg20 mi
11:00 AM81 °FBroken clouds.15 mph66%29.90 "Hg20 mi
10:00 AM77 °FPartly sunny.15 mph69%29.91 "Hg15 mi
9:00 AM75 °FPartly sunny.7 mph74%29.94 "Hg15 mi
8:00 AM68 °FBroken clouds.3 mph83%29.95 "Hg15 mi
7:00 AM63 °FPartly sunny.2 mph94%29.97 "Hg15 mi
6:00 AM61 °FPartly cloudy.3 mph94%29.96 "Hg10 mi
5:00 AM61 °FSprinkles. Partly cloudy.2 mph88%29.98 "Hg25 mi
4:00 AM61 °FSprinkles. Mostly cloudy.2 mph94%29.98 "Hg15 mi
3:00 AM61 °FMostly cloudy.No wind88%30.00 "Hg25 mi
2:00 AM59 °FMostly cloudy.No wind88%30.04 "Hg25 mi
1:00 AM59 °FPassing clouds.2 mph88%30.05 "Hg25 mi
12:00 AM59 °FPassing clouds.No wind88%30.09 "Hg15 mi
11:00 PM
Fri, May 29
63 °FPassing clouds.No wind83%30.09 "Hg15 mi
10:00 PM64 °FPassing clouds.5 mph78%30.11 "Hg25 mi
9:00 PM66 °FPartly sunny.5 mph73%30.11 "Hg25 mi
8:00 PM72 °FPartly sunny.3 mph61%30.12 "Hg25 mi
7:00 PM72 °FOvercast.6 mph65%30.14 "Hg25 mi
6:00 PM73 °FOvercast.5 mph61%30.16 "Hg25 mi
5:00 PM75 °FOvercast.5 mph54%30.19 "Hg25 mi
4:00 PM75 °FOvercast.6 mph54%30.22 "Hg25 mi
3:00 PM75 °FPartly sunny.3 mph57%30.24 "Hg25 mi
Weather by CustomWeather, © 2015

See weather overviewHow to use our weather pages